Location: Bergnershof
(48.9468°N, 10.9431°E)
Time: 00:14:08
(UTC+00:00)

USA 281 - Pass Details

Date: 03 March 2021
Orbit: 1076 x 1083 km, 106.0° (Epoch: 12 April)

Event Time Altitude Azimuth Distance (km) Brightness Sun altitude
Exits shadow 21:34:27 35° 338° (NNW) 1,680 4.5 -41.2°
Drops below altitude 10° 21:37:57 10° 335° (NNW) 2,927 6.1 -41.6°
Sets 21:40:28 0° 335° (NNW) 3,887 6.9 -41.8°
